Location: Barrialito
(10.3588°N, 66.9747°W)
Time: 01:18:04
(UTC+00:00)

H-2A R/B - Pass Details

Date: 08 July 2022
Orbit: 732 x 837 km, 98.2° (Epoch: 16 August)

Event Time Altitude Azimuth Distance (km) Brightness Sun altitude
Rises 09:25:29 0° 39° (NE) 3,187 6.5 -11.3°
Reaches altitude 10° 09:28:31 10° 58° (ENE) 2,249 6.0 -10.6°
Maximum altitude 09:31:44 18° 100° (E) 1,776 4.7 -9.9°
Drops below altitude 10° 09:34:57 10° 141° (SE) 2,230 4.6 -9.2°
Sets 09:37:55 0° 160° (SSE) 3,148 5.1 -8.5°
